Home > Weather > Upernavik > Past weeks

Flag for Greenland Past Weather in Upernavik, Greenland — Yesterday and Last 2 Weeks

Now
30 °F

Chilly.


Feels Like: 19 °F
Forecast: 28 / 35 °F
Wind: 15 mph from South

Location: Edderfugle Oeer

Current Time: May 25, 2016 at 5:08:14 PM

Latest Report: May 25, 2016 at 4:00 PM


Visibility: N/A

Pressure: 29.54 "Hg

Humidity: 97%

Dew Point: 29 °F

Location of UpernavikLocation

Past Weather in Upernavik — Graph

°F

Upernavik Temperature Yesterday

Maximum temperature yesterday: 39 °F (at 10:00 PM)
Minimum temperature yesterday: 30 °F (at 3:00 AM)
Average temperature yesterday: 33 °F

High & Low Weather Summary for the Past Weeks

 TemperatureHumidityPressure
High39 °F (May 24, 10:00 PM)99% (May 13, 5:00 AM)30.37 "Hg (May 13, 5:00 AM)
Low20 °F (May 16, 7:00 AM)61% (May 24, 10:00 PM)29.35 "Hg (May 20, 3:00 PM)
Average28 °F92%29.85 "Hg
* Reported May 10 3:00 PM — May 25 3:00 PM, Upernavik, Weather by CustomWeather, © 2016

Note: Actual official high and low records may vary slightly from our data, if they occured in-between our weather recording intervals... More about our weather records

Advertising

Upernavik Weather History for the Previous 24 Hours

Scroll right to see more
 ConditionsComfort  
Time TempWeatherWind HumidityBarometerVisibility
3:00 PM
Wed, May 25
29 °FChilly.17 mph96%29.53 "HgN/A
2:00 PM30 °FChilly.24 mph89%29.50 "HgN/A
1:00 PM31 °FChilly.23 mph90%29.50 "HgN/A
12:00 PM30 °FChilly.16 mph93%29.50 "HgN/A
11:00 AM29 °FChilly.14 mph96%29.50 "HgN/A
10:00 AM28 °FChilly.14 mph96%29.47 "HgN/A
9:00 AM29 °FChilly.17 mph92%29.47 "HgN/A
8:00 AM29 °FChilly.16 mph91%29.47 "HgN/A
7:00 AM29 °FChilly.14 mph93%29.44 "HgN/A
6:00 AM30 °FChilly.10 mph95%29.44 "HgN/A
5:00 AM29 °FChilly.12 mph92%29.44 "HgN/A
4:00 AM29 °FChilly.6 mph91%29.44 "HgN/A
3:00 AM29 °FChilly.6 mph90%29.44 "HgN/A
2:00 AM30 °FChilly.5 mph92%29.44 "HgN/A
1:00 AM32 °FChilly.5 mph86%29.44 "HgN/A
12:00 AM33 °FChilly.2 mph85%29.44 "HgN/A
11:00 PM
Tue, May 24
38 °FChilly.2 mph68%29.44 "HgN/A
10:00 PM39 °FChilly.7 mph61%29.47 "HgN/A
9:00 PM35 °FChilly.7 mph76%29.47 "HgN/A
8:00 PM37 °FChilly.7 mph69%29.50 "HgN/A
7:00 PM35 °FChilly.8 mph74%29.50 "HgN/A
6:00 PM36 °FChilly.8 mph75%29.53 "HgN/A
5:00 PM38 °FChilly.10 mph63%29.55 "HgN/A
Weather by CustomWeather, © 2016

See weather overviewHow to use our weather pages